Regional Weather Roundup
Issued by NWS

Home | Current Version | Previous Version | Text Only | Print | Product List | Glossary On
Versions: 1 2 3 4 5 6 7 8 9 10 11 12 13 14 15 16 17 18 19 20 21 22 23 24 25 26 27 28 29 30 31 32 33 34 35 36 37 38 39 40 41 42 43 44 45 46 47 48 49 50
000
ASUS43 KIND 220159
RWRIN

WEATHER ROUNDUP FOR INDIANA
NATIONAL WEATHER SERVICE INDIANAPOLIS IN
1000 PM EDT TUE OCT 21 2014

NOTE: "FAIR" INDICATES FEW OR NO CLOUDS BELOW 12,000 FEET WITH NO
SIGNIFICANT WEATHER AND/OR OBSTRUCTIONS TO VISIBILITY.

* - STATION DOES NOT REPORT WEATHER SUCH AS PRECIPITATION OR FOG.

+ - STATION NOT QUALITY CONTROLLED BY THE NATIONAL WEATHER SERVICE.
    USE DATA WITH CAUTION...ESPECIALLY DEWPOINT AND RELATIVE
    HUMIDITY OBSERVATIONS.

INZ001>003-010>013-019-020-220300-
NORTHWEST INDIANA

CITY           SKY/WX    TMP DP  RH WIND       PRES   REMARKS
VALPARAISO     NOT AVBL

$$

LMZ046-743>745-220300-
SOUTHERN LAKE MICHIGAN

STATION/POSITION TIME  TEMP WIND        PRES
                       AIR  DIR/SP/G
                 (UTC) (F)  (DEG/KT/KT) (MB)
MICHIGAN CITY    0100   50   40/ 11/ 16   N/A

$$

INZ004-005-014>016-021>024-220300-
NORTH CENTRAL INDIANA

CITY           SKY/WX    TMP DP  RH WIND       PRES   REMARKS
GOSHEN         CLEAR     43  37  79 N5        30.23R
SOUTH BEND     CLEAR     40  34  79 N3        30.24R

$$

INZ006>009-017-018-025>027-220300-
NORTHEAST INDIANA

CITY           SKY/WX    TMP DP  RH WIND       PRES   REMARKS
ANGOLA *+      CLEAR     39  21  48 CALM      30.21R
FORT WAYNE     CLOUDY    47  37  68 N10       30.22R

$$

INZ028-029-035-036-043>045-051>053-220300-
WEST CENTRAL INDIANA

CITY           SKY/WX    TMP DP  RH WIND       PRES   REMARKS
GREENCASTLE +  CLOUDY    48  41  76 N8        30.20R
LAFAYETTE      CLEAR     43  38  82 N6        30.22R
TERRE HAUTE    CLEAR     49  43  80 N8        30.20R

$$

INZ030>032-037>040-046>048-054>057-064-065-220300-
CENTRAL INDIANA

CITY           SKY/WX    TMP DP  RH WIND       PRES   REMARKS
COLUMBUS       CLEAR     45  41  87 N5        30.17R
INDIANAPOLIS   MOCLDY    50  42  74 N8        30.17
-EAGLE CREEK   CLOUDY    50  43  77 N7        30.18R
KOKOMO *+      CLOUDY    48  39  71 NE12      30.21R
MT COMFORT *+  CLOUDY    48  41  76 N6        30.18R
SHELBYVILLE    CLOUDY    49  41  74 N6        30.17R

$$

INZ033-034-041-042-049-050-058-059-220300-
EAST CENTRAL INDIANA

CITY           SKY/WX    TMP DP  RH WIND       PRES   REMARKS
MUNCIE         CLOUDY    48  38  68 NE10      30.19R

$$

INZ060-061-067>069-081>083-085>088-220300-
SOUTHWEST INDIANA

CITY           SKY/WX    TMP DP  RH WIND       PRES   REMARKS
EVANSVILLE     CLEAR     51  40  65 N5        30.17R
HUNTINGBURG *+ CLEAR     48  39  71 NE5       30.17R

$$

INZ062-063-066-070>080-084-089>092-220300-
SOUTH CENTRAL AND SOUTHEAST INDIANA

CITY           SKY/WX    TMP DP  RH WIND       PRES   REMARKS
BLOOMINGTON    MOCLDY    47  42  83 N3        30.17R

$$




USA.gov is the U.S. government's official web portal to all federal, state and local government web resources and services.